Time[GMT],air_temperature[C](-3m),wind_speed[m/s](-4m),wind_gust[m/s](-4m),wind_direction[degrees](-4m),visibility[m](-3m),barometric_pressure[millibars](-3m)
2004-11-10 19:00,2.0,3.0,4.7,217,2939,1032.36
2004-11-10 20:00,2.5,4.0,5.2,177,2934,1031.82
2004-11-10 21:00,3.2,5.1,6.7,170,2676,1031.16
2004-11-10 22:00,4.5,5.7,7.9,188,2959,1030.86
2004-11-10 23:00,5.1,6.9,8.5,208,2960,1030.68
2004-11-11 00:00,4.7,8.2,9.9,201,2959,1030.62
2004-11-11 01:00,4.5,9.3,10.9,209,2960,1030.38
2004-11-11 02:00,4.5,9.9,12.0,210,2957,1029.78
2004-11-11 03:00,4.7,10.6,12.8,217,2953,1029.30
2004-11-11 04:00,5.3,10.5,12.1,208,2953,1028.46
2004-11-11 05:00,5.6,10.5,12.8,209,2948,1027.98
2004-11-11 06:00,6.2,10.5,13.1,209,2938,1027.02
2004-11-11 07:00,6.9,11.3,13.1,201,2930,1026.30
2004-11-11 08:00,7.0,11.1,13.1,207,2918,1025.58
2004-11-11 09:00,7.4,11.3,13.3,216,2924,1024.86
2004-11-11 10:00,7.4,11.1,13.5,217,2923,1024.44
2004-11-11 11:00,7.7,11.2,13.6,216,2906,1023.72
2004-11-11 12:00,8.0,11.4,14.1,216,2894,1023.54
2004-11-11 13:00,8.2,10.4,12.5,215,2885,1023.48
2004-11-11 14:00,8.7,10.5,12.8,217,2876,1023.24
2004-11-11 15:00,9.1,10.4,12.2,223,2876,1023.18
2004-11-11 16:00,9.5,10.3,11.7,219,2896,1022.40
2004-11-11 17:00,10.1,8.4,9.7,214,2909,1021.62
2004-11-11 18:00,10.5,6.5,7.9,210,2910,1021.08
2004-11-11 19:00,10.6,6.0,6.7,207,2889,1020.60
2004-11-11 20:00,11.4,7.7,8.9,216,2348,1020.42
2004-11-11 21:00,10.9,6.7,8.1,209,2801,1020.54
2004-11-11 22:00,10.9,6.1,6.8,213,2943,1021.14
2004-11-11 23:00,10.7,4.8,5.6,222,2948,1021.92
2004-11-12 00:00,10.6,5.0,5.7,229,2955,1022.28
2004-11-12 01:00,10.2,4.5,5.3,239,2947,1022.64
2004-11-12 02:00,10.1,3.5,4.2,248,2950,1022.94
2004-11-12 03:00,8.8,7.2,8.4,341,2950,1023.48
2004-11-12 04:00,8.4,8.1,9.4,349,2957,1023.96
2004-11-12 05:00,7.9,9.1,10.9, 15,2948,1024.56
2004-11-12 06:00,6.7,9.5,11.2, 19,2954,1025.28
2004-11-12 07:00,5.9,9.7,11.6, 26,2946,1026.24
2004-11-12 08:00,5.7,9.2,11.2, 19,2954,1026.48
2004-11-12 09:00,5.3,9.3,11.2, 22,2957,1026.78
2004-11-12 10:00,4.9,9.4,11.6, 32,2955,1027.20
2004-11-12 11:00,4.4,9.5,11.4, 36,2956,1027.20
2004-11-12 12:00,4.5,9.5,11.5, 30,2942,1027.62
2004-11-12 13:00,4.5,9.0,11.0, 35,2936,1027.92
2004-11-12 14:00,4.6,9.6,11.1, 35,2925,1028.10
2004-11-12 15:00,4.7,9.3,11.0, 33,2893,1028.34
2004-11-12 16:00,4.6,10.0,12.1, 23,2817,1027.86
2004-11-12 17:00,4.4,9.3,11.4, 25,2422,1027.62
2004-11-12 18:00,4.3,8.9,10.6, 33,2725,1027.38
2004-11-12 19:00,3.9,9.9,11.6, 31,2230,1027.32
2004-11-12 20:00,3.5,9.5,11.2, 36,2424,1027.80
2004-11-12 21:00,3.3,9.8,11.5, 31,2238,1027.56
2004-11-12 22:00,3.4,9.8,11.5, 27,2153,1028.16
2004-11-12 23:00,3.2,9.2,10.7, 31,2224,1027.26
2004-11-13 00:00,3.6,9.4,11.2, 26,2295,1028.34
2004-11-13 01:00,3.4,9.5,10.7, 30,2369,1027.80
2004-11-13 02:00,3.6,9.2,11.2, 38,2414,1028.28
2004-11-13 03:00,3.8,9.8,11.2, 27,2423,1028.10
2004-11-13 04:00,3.9,9.6,11.9, 27,2115,1027.56
2004-11-13 05:00,3.9,10.1,12.1, 25,1896,1027.44
2004-11-13 06:00,3.5,11.6,14.0, 17,1576,1026.54
2004-11-13 07:00,2.8,12.1,14.1, 10,1605,1024.56
2004-11-13 08:00,2.6,12.3,14.1, 12,1266,1023.48
2004-11-13 09:00,2.3,12.9,14.9,  5,1016,1022.70
2004-11-13 10:00,2.4,12.8,15.0,  3,1089,1022.64
2004-11-13 11:00,2.0,13.0,15.4,  3, 941,1023.96
2004-11-13 12:00,2.5,12.5,14.7,  7,1444,1025.40
2004-11-13 13:00,2.4,13.1,14.8,358,1339,1025.76
2004-11-13 14:00,2.7,12.2,13.9,  3,1842,1026.18
2004-11-13 15:00,3.0,12.6,14.5,  7,2303,1026.24
2004-11-13 16:00,2.7,13.3,16.0,  0,2071,1026.42
2004-11-13 17:00,3.0,12.7,15.8,356,2179,1025.82
2004-11-13 18:00,3.9,13.2,15.5,  5,2805,1025.46
2004-11-13 19:00,4.2,14.0,16.1,  4,2768,1025.76
2004-11-13 20:00,4.7,13.7,16.4,  8,2776,1026.78
2004-11-13 21:00,4.9,13.4,15.9,  5,2826,1027.50
2004-11-13 22:00,4.8,13.4,16.5,  8,2944,1028.10
2004-11-13 23:00,5.0,12.0,14.6,  1,2831,1028.58
2004-11-14 00:00,4.8,13.7,16.5,  7,2908,1028.70
2004-11-14 01:00,4.0,13.8,16.1,  6,2925,1028.40
2004-11-14 02:00,3.7,14.3,18.6,359,2924,1029.48
2004-11-14 03:00,2.8,13.2,15.5,349,2946,1029.60
2004-11-14 04:00,2.4,12.5,15.9,351,2939,1030.26
2004-11-14 05:00,1.9,12.9,15.3,344,2755,1030.56
2004-11-14 06:00,1.5,12.6,14.7,343,2929,1028.82
2004-11-14 07:00,1.2,11.9,15.5,343,2879,1031.94
2004-11-14 08:00,0.1,11.2,13.1,332,2891,1032.48
2004-11-14 09:00,-0.7,10.6,12.8,328,2910,1032.66
2004-11-14 10:00,-0.7,9.8,12.3,330,2930,1033.26
2004-11-14 11:00,-0.9,8.2,10.9,323,2890,1033.74
2004-11-14 12:00,-1.4,7.7,9.3,312,2901,1034.22
2004-11-14 13:00,-1.1,8.7,10.9,318,2614,1034.52
2004-11-14 14:00,-0.7,8.1,9.9,319,2861,1034.22
2004-11-14 15:00,0.2,7.2,8.6,315,2954,1034.04
2004-11-14 16:00,1.6,5.4,6.8,294,2955,1032.72
2004-11-14 17:00,2.9,4.6,6.4,276,2959,1031.52
2004-11-14 18:00,4.8,5.4,7.2,264,2951,1030.14
2004-11-14 19:00,6.9,7.4,9.1,296,2954,1028.94
2004-11-14 20:00,8.0,8.2,10.0,298,2960,1028.34
2004-11-14 21:00,8.2,8.7,10.1,298,2939,1028.28
2004-11-14 22:00,8.2,6.7,8.2,296,2960,1028.82
2004-11-14 23:00,8.1,6.9,9.0,301,2960,1029.24
2004-11-15 00:00,7.8,7.7,9.7,316,2960,1029.18
2004-11-15 01:00,7.3,7.8,9.6,319,2958,1029.24
2004-11-15 02:00,6.7,6.0,7.2,316,2960,1029.48
2004-11-15 03:00,6.5,6.6,7.9,306,2960,1029.30
2004-11-15 04:00,6.5,8.7,10.8,316,2958,1029.18
2004-11-15 05:00,6.0,8.2,9.8,317,2960,1028.94
2004-11-15 06:00,6.0,7.8,9.1,322,2956,1028.52
2004-11-15 07:00,5.6,7.6,8.9,316,2960,1028.58
2004-11-15 08:00,5.3,7.6,9.0,315,2961,1028.10
2004-11-15 09:00,5.1,8.1,9.3,318,2958,1027.98
2004-11-15 10:00,5.3,8.0,9.4,312,2958,1028.40
2004-11-15 11:00,5.4,7.6,8.7,321,2957,1028.58
2004-11-15 12:00,5.3,6.3,7.4,322,2895,1028.64
2004-11-15 13:00,5.4,7.2,8.2,318,2582,1029.06
2004-11-15 14:00,5.7,6.4,7.3,317,2936,1029.06
2004-11-15 15:00,6.3,4.3,5.0,332,2955,1028.70
2004-11-15 16:00,6.8,4.1,5.0,322,2957,1027.92
2004-11-15 17:00,7.2,3.1,3.8, 31,2959,1027.02
2004-11-15 18:00,7.3,1.4,2.3, 56,2957,1026.18
2004-11-15 19:00,7.9,2.5,3.3,105,2941,1025.58
2004-11-15 20:00,7.9,3.9,4.6,104,2746,1025.34
2004-11-15 21:00,7.9,3.5,4.2,147,2782,1025.70
2004-11-15 22:00,7.9,3.4,3.9,159,2960,1025.76
2004-11-15 23:00,8.1,3.2,3.9,174,2959,1025.82
2004-11-16 00:00,8.6,2.6,3.6,185,2960,1025.70
2004-11-16 01:00,8.9,2.6,3.4,232,2959,1025.10
2004-11-16 02:00,8.7,3.8,4.5,291,2950,1024.92
2004-11-16 03:00,8.5,4.6,5.8,349,2960,1024.86
2004-11-16 04:00,8.0,7.0,8.1,331,2957,1024.80
2004-11-16 05:00,7.7,6.8,7.7,331,2957,1024.92
2004-11-16 06:00,7.9,6.1,7.1,346,2946,1024.92
2004-11-16 07:00,8.0,3.3,5.2, 23,2959,1025.40
2004-11-16 08:00,8.1,4.6,5.4,  8,2958,1025.16
2004-11-16 09:00,8.0,4.8,5.7,  2,2959,1025.04
2004-11-16 10:00,7.2,3.9,4.7,334,2950,1025.46
2004-11-16 11:00,6.7,4.1,5.1,330,2945,1025.88
2004-11-16 12:00,6.7,5.3,6.2,348,2925,1026.36
2004-11-16 13:00,6.8,3.9,5.0,348,2880,1026.72
2004-11-16 14:00,7.1,5.8,7.4, 62,2947,1026.24
2004-11-16 15:00,6.3,4.0,5.4, 56,2921,1026.48
2004-11-16 16:00,6.0,3.2,4.3, 37,2939,1026.00
2004-11-16 17:00,5.8,3.6,4.5, 38,2928,1025.10
2004-11-16 18:00,5.7,3.4,4.3, 37,2903,1024.74
2004-11-16 19:00,6.1,2.4,3.3, 24,2531,1024.32
2004-11-16 20:00,6.0,1.9,2.7, 35,2913,1024.32
2004-11-16 21:00,5.5,1.2,2.2, 47,2953,1024.38
2004-11-16 22:00,5.4,0.9,1.5, 37,2957,1024.80
2004-11-16 23:00,5.5,1.7,2.8,100,2953,1024.92
2004-11-17 00:00,5.7,2.1,3.3,130,2952,1024.86
2004-11-17 01:00,5.7,1.5,2.3,120,2953,1024.92
2004-11-17 02:00,5.7,0.6,1.4, 97,2956,1025.04
2004-11-17 03:00,5.9,1.6,2.5, 31,2954,1024.80
2004-11-17 04:00,6.0,3.1,4.0, 50,2951,1024.80
2004-11-17 05:00,6.2,3.0,4.5, 24,2954,1024.56
2004-11-17 06:00,6.3,3.5,4.3, 22,2950,1024.38
2004-11-17 07:00,6.3,3.6,4.8, 34,2948,1024.38
2004-11-17 08:00,6.2,3.4,4.8,349,2941,1024.32
2004-11-17 09:00,6.0,3.7,5.2, 17,2953,1024.26
2004-11-17 10:00,6.0,3.5,4.6, 35,2957,1024.50
2004-11-17 11:00,5.4,4.2,5.3,325,2895,1024.92
2004-11-17 12:00,5.1,3.8,4.5,340,2892,1025.28
2004-11-17 13:00,5.8,3.1,3.9, 25,2538,1025.64
2004-11-17 14:00,6.0,2.5,3.8,  8,2925,1025.58
2004-11-17 15:00,6.3,1.1,2.4,  1,2880,1025.52
2004-11-17 16:00,5.9,1.7,2.7,333,2925,1025.04
2004-11-17 17:00,6.3,1.1,1.8,263,2892,1024.14
2004-11-17 18:00,6.9,1.0,1.4,267,2925,1023.72
2004-11-17 19:00,7.7,0.7,1.3,190,2426,1023.00
2004-11-17 20:00,7.5,0.8,1.3,189,2414,1023.06
2004-11-17 21:00,6.9,1.2,1.9,176,2956,1023.24
2004-11-17 22:00,6.8,1.5,2.0,184,2932,1023.24
2004-11-17 23:00,7.4,1.9,2.4,197,2917,1023.30
2004-11-18 00:00,8.0,3.0,3.3,212,2903,1023.12
2004-11-18 01:00,8.4,3.0,3.7,208,2856,1023.06
2004-11-18 02:00,8.4,3.7,4.4,213,2897,1023.06
2004-11-18 03:00,8.3,3.4,4.1,223,2880,1022.82
2004-11-18 04:00,8.2,4.3,5.2,240,2888,1022.34
2004-11-18 05:00,8.3,3.4,4.1,262,2871,1021.86
2004-11-18 06:00,8.4,2.7,3.4,287,2855,1021.38
2004-11-18 07:00,8.3,2.2,2.9,272,2899,1021.14
2004-11-18 08:00,8.2,2.1,2.5,262,2866,1020.66
2004-11-18 09:00,8.3,2.1,2.5,256,2916,1020.18
2004-11-18 10:00,8.4,3.5,4.7,272,2912,1020.36
2004-11-18 11:00,8.5,2.8,3.6,248,2928,1020.48
2004-11-18 12:00,8.3,3.4,4.0,285,2925,1021.02
2004-11-18 13:00,8.3,1.9,2.9,251,2917,1020.96
2004-11-18 14:00,8.5,2.7,3.1,228,2923,1020.84
2004-11-18 15:00,8.8,3.1,4.2,226,2909,1020.54
2004-11-18 16:00,8.6,2.7,3.4,228,2894,1019.76
2004-11-18 17:00,8.7,2.2,2.6,225,2846,1018.98
2004-11-18 18:00,8.8,2.7,3.2,204,2801,1018.02
2004-11-18 19:00,9.1,1.2,2.2,220,2733,1017.60
2004-11-18 20:00,9.3,2.3,2.8,170,2825,1017.24
2004-11-18 21:00,9.2,3.1,3.6,169,2891,1017.06
2004-11-18 22:00,9.2,1.9,2.4,137,2906,1017.60
2004-11-18 23:00,9.4,2.9,3.2,163,2913,1017.42
2004-11-19 00:00,9.4,2.4,2.9,140,2905,1017.36
2004-11-19 01:00,9.6,3.6,4.0,161,2906,1017.12
2004-11-19 02:00,10.1,3.3,3.6,205,2951,1017.00
2004-11-19 03:00,10.3,4.1,4.7,222,2951,1016.64
2004-11-19 04:00,10.2,3.5,3.9,215,2956,1016.28
2004-11-19 05:00,10.1,4.4,4.9,215,2956,1016.10
2004-11-19 06:00,9.9,3.7,4.3,233,2931,1016.10
2004-11-19 07:00,9.8,3.3,3.7,240,2928,1016.04
2004-11-19 08:00,9.8,3.3,4.0,238,2930,1015.62
2004-11-19 09:00,9.6,3.5,4.3,259,2922,1015.50
2004-11-19 10:00,9.8,4.7,5.3,264,2934,1015.62
2004-11-19 11:00,9.6,4.5,5.3,263,2948,1015.86
2004-11-19 12:00,9.9,3.9,4.7,261,2949,1016.16
2004-11-19 13:00,9.9,3.0,3.9,254,2936,1016.58
2004-11-19 14:00,10.5,5.1,6.9,253,2922,1016.82
2004-11-19 15:00,10.2,3.6,4.4,256,2915,1017.12
2004-11-19 16:00,11.9,4.8,5.6,322,2943,1016.46
2004-11-19 17:00,12.0,5.3,6.7,319,2937,1016.04
2004-11-19 18:00,12.1,6.4,7.6,313,2922,1015.92
2004-11-19 19:00,12.1,6.8,8.0,310,2954,1015.98
2004-11-19 20:00,11.7,5.4,6.2,292,2947,1016.58
2004-11-19 21:00,10.8,4.7,5.4,314,2958,1017.30
2004-11-19 22:00,10.7,5.6,6.6,326,2960,1017.96
2004-11-19 23:00,10.4,4.9,5.8,330,2960,1018.62
2004-11-20 00:00,9.8,5.4,6.5,329,2960,1019.22
2004-11-20 01:00,9.2,5.1,5.8,340,2960,1019.76
2004-11-20 02:00,8.7,5.2,6.1,320,2959,1020.06
2004-11-20 03:00,8.0,5.2,6.4,324,2959,1020.48
2004-11-20 04:00,7.7,4.9,5.8,318,2959,1020.72
2004-11-20 05:00,7.2,5.6,6.8,328,2960,1020.72
2004-11-20 06:00,6.7,5.4,6.0,312,2956,1020.84
2004-11-20 07:00,6.6,4.6,5.6,330,2956,1020.96
2004-11-20 08:00,6.1,4.6,5.6,329,2957,1021.02
2004-11-20 09:00,6.1,5.0,5.6,336,2959,1021.08
2004-11-20 10:00,6.0,4.7,5.4,333,2955,1021.56
2004-11-20 11:00,5.8,4.4,5.0,345,2954,1022.10
2004-11-20 12:00,5.8,4.2,4.9,  3,2946,1022.16
2004-11-20 13:00,6.4,4.6,5.3, 13,2934,1022.58
2004-11-20 14:00,6.8,4.7,6.4, 45,2948,1023.18
2004-11-20 15:00,6.4,5.5,6.5, 60,2844,1023.42
2004-11-20 16:00,6.1,4.8,5.7, 42,2739,1023.18
2004-11-20 17:00,5.9,3.0,4.2, 51,2954,1023.06
2004-11-20 18:00,5.9,2.8,3.7, 62,2891,1022.88
2004-11-20 19:00,6.0,3.1,4.9, 90,2948,1022.46
2004-11-20 20:00,6.1,3.4,4.6, 97,2951,1022.40
2004-11-20 21:00,6.0,3.0,4.0,122,2960,1022.58
2004-11-20 22:00,6.1,3.6,4.4,121,2960,1022.46
2004-11-20 23:00,6.2,3.4,4.6,114,2960,1022.70
2004-11-21 00:00,6.3,3.8,4.7,113,2960,1022.88
2004-11-21 01:00,6.4,3.7,4.9,112,2960,1023.42
2004-11-21 02:00,6.5,3.1,3.7,111,2960,1024.02
2004-11-21 03:00,6.6,3.8,4.7,114,2960,1023.96
2004-11-21 04:00,6.4,5.0,5.9,118,2891,1023.60
2004-11-21 05:00,6.3,4.8,5.7,124,2938,1023.78
2004-11-21 06:00,6.4,4.0,5.3,141,2956,1023.84
2004-11-21 07:00,6.3,3.9,4.8,126,2960,1023.48
2004-11-21 08:00,6.7,3.8,4.7,125,2959,1023.30
2004-11-21 09:00,6.9,4.1,4.9,118,2959,1022.76
2004-11-21 10:00,6.6,3.8,4.7,150,2873,1022.82
2004-11-21 11:00,6.7,3.0,4.4,139,2899,1023.00
2004-11-21 12:00,6.9,2.2,2.8,187,2956,1023.48
2004-11-21 13:00,6.8,1.8,2.6,162,2950,1023.66
2004-11-21 14:00,7.0,2.3,3.1,115,2950,1023.78
2004-11-21 15:00,7.4,2.7,3.7,162,2942,1023.78
2004-11-21 16:00,7.0,4.5,5.1,206,2947,1023.60
2004-11-21 17:00,7.1,3.3,4.5,204,2937,1022.88
2004-11-21 18:00,6.9,2.3,3.2,251,2912,1022.28
2004-11-21 19:00,6.9,1.8,2.7,221,2918,1021.98
2004-11-21 20:00,7.0,2.7,3.5,192,2936,1021.86
2004-11-21 21:00,7.3,3.3,4.1,193,2941,1021.86
2004-11-21 22:00,7.5,4.5,5.2,191,2951,1021.68
2004-11-21 23:00,7.8,4.5,5.3,207,2927,1021.80
2004-11-22 00:00,7.9,4.5,5.4,207,2942,1021.50
2004-11-22 01:00,8.0,5.3,6.3,219,2888,1021.32
2004-11-22 02:00,7.8,4.1,5.4,220,2789,1021.20
2004-11-22 03:00,7.8,5.0,6.1,242,2593,1021.26
2004-11-22 04:00,7.7,3.8,4.5,228,2352,1020.78
2004-11-22 05:00,7.6,3.5,4.5,224,2318,1020.48
2004-11-22 06:00,7.6,4.9,5.6,229,2307,1020.12
2004-11-22 07:00,7.7,4.6,6.1,259,2573,1019.88
2004-11-22 08:00,7.8,6.0,8.0,260,2414,1019.34
2004-11-22 09:00,7.1,4.0,5.5,298,2670,1019.16
2004-11-22 10:00,7.2,3.7,4.5,274,2731,1019.22
2004-11-22 11:00,6.9,4.8,5.4,284,2859,1018.98
2004-11-22 12:00,6.7,4.6,5.7,289,2916,1019.16
2004-11-22 13:00,7.0,4.4,5.8,286,2916,1019.28
2004-11-22 14:00,7.4,5.8,6.8,285,2936,1019.46
2004-11-22 15:00,7.9,5.5,6.4,287,2922,1019.16
2004-11-22 16:00,8.4,5.9,7.0,277,2939,1018.74
2004-11-22 17:00,8.7,6.1,7.4,295,2935,1017.90
2004-11-22 18:00,8.9,5.6,6.9,293,2945,1017.36
2004-11-22 19:00,9.2,3.7,5.2,293,2934,1017.30
2004-11-22 20:00,9.2,3.3,3.9,262,2931,1017.06
2004-11-22 21:00,9.1,2.8,3.4,265,2960,1017.30
2004-11-22 22:00,9.1,1.9,2.5,295,2957,1017.54
2004-11-22 23:00,8.7,2.8,3.3,331,2960,1017.72
2004-11-23 00:00,8.6,1.8,2.1,344,2960,1017.96
2004-11-23 01:00,8.3,1.6,2.2,299,2960,1018.02
2004-11-23 02:00,8.0,0.7,1.1,302,2959,1017.96
2004-11-23 03:00,8.1,1.7,2.1,298,2958,1018.08
2004-11-23 04:00,7.8,0.9,1.4,335,2960,1018.08
2004-11-23 05:00,7.8,1.5,1.7,274,2959,1018.02
2004-11-23 06:00,7.5,2.0,2.5,263,2956,1018.26
2004-11-23 07:00,7.2,1.6,2.0,260,2956,1018.56
2004-11-23 08:00,6.6,1.8,2.2,285,2953,1018.56
2004-11-23 09:00,6.6,1.9,2.3,288,2951,1018.92
2004-11-23 10:00,6.7,1.2,1.7,272,2951,1018.98
2004-11-23 11:00,6.6,1.7,2.2,273,2952,1019.28
2004-11-23 12:00,6.3,1.5,2.1,313,2855,1019.58
2004-11-23 13:00,5.9,2.7,3.2,337,2940,1020.00
2004-11-23 14:00,6.4,1.4,2.2,337,2935,1020.36
2004-11-23 15:00,7.9,0.4,0.8,255,2934,1020.42
2004-11-23 16:00,7.6,0.9,1.3,183,2944,1020.06
2004-11-23 17:00,8.3,1.1,1.7,182,2951,1019.46
2004-11-23 18:00,8.2,1.5,1.9,166,2944,1018.98
2004-11-23 19:00,8.3,3.0,3.6,154,2947,1018.80
2004-11-23 20:00,9.0,4.1,5.1,164, 980,1018.86
2004-11-23 21:00,9.0,6.4,7.7,168,2956,1018.98
2004-11-23 22:00,9.0,7.9,9.5,164,2957,1018.92
2004-11-23 23:00,8.9,8.2,9.8,169,2926,1019.22
2004-11-24 00:00,8.7,8.1,9.5,181,2954,1019.52
2004-11-24 01:00,8.6,7.8,9.3,185,2950,1019.76
2004-11-24 02:00,8.6,7.1,8.2,178,2952,1020.06
2004-11-24 03:00,8.7,7.9,9.2,168,2948,1019.58
2004-11-24 04:00,8.7,7.5,8.5,175,2941,1019.64
2004-11-24 05:00,8.7,6.5,7.8,173,2945,1020.18
2004-11-24 06:00,8.6,7.1,8.3,165,2945,1019.52
2004-11-24 07:00,8.7,7.2,8.4,170,2953,1019.46
2004-11-24 08:00,8.6,6.6,7.5,172,2953,1019.28
2004-11-24 09:00,8.5,6.0,7.1,173,2942,1018.80
2004-11-24 10:00,8.5,5.1,6.7,173,2941,1018.56
2004-11-24 11:00,8.6,5.2,6.3,175,2940,1019.04
2004-11-24 12:00,8.6,4.8,5.9,164,2814,1019.76
2004-11-24 13:00,8.8,4.5,5.4,149,2925,1019.88
2004-11-24 14:00,8.9,4.7,5.3,146,2629,1019.58
2004-11-24 15:00,8.9,4.7,5.6,134,2870,1019.04
2004-11-24 16:00,9.1,4.7,5.8,140,2915,1018.20
2004-11-24 17:00,9.3,6.2,7.3,134,2829,1017.30
2004-11-24 18:00,9.3,6.5,7.6,131,2823,1016.04
2004-11-24 19:00,9.2,6.4,7.5,125,2813,1015.02
2004-11-24 20:00,9.1,7.1,8.5,123,2031,1014.42
2004-11-24 21:00,9.3,8.5,9.9,123,2042,1013.04
2004-11-24 22:00,9.7,10.2,12.2,126,2473,1011.12
2004-11-24 23:00,9.9,9.8,11.5,128,2336,1009.74
2004-11-25 00:00,10.1,10.9,13.0,129,2405,1008.00
2004-11-25 01:00,10.0,10.1,13.1,124, 992,1006.08
2004-11-25 02:00,10.0,10.8,13.5,140,1549,1004.16
2004-11-25 03:00,10.6,9.4,10.7,151, 731,1003.02
2004-11-25 04:00,10.9,7.5,8.7,170, 356,1001.64
2004-11-25 05:00,10.8,7.2,8.1,167,2078,1001.16
2004-11-25 06:00,11.3,8.2,9.5,174,2349,999.72
2004-11-25 07:00,11.9,10.1,12.0,177,2041,998.16
2004-11-25 08:00,12.2,9.1,10.8,185,1654,997.08
2004-11-25 09:00,12.1,7.7,8.5,195,1716,996.24
2004-11-25 10:00,12.6,7.6,8.7,202,2553,996.00
2004-11-25 11:00,12.3,7.6,8.9,188,2704,995.28
2004-11-25 12:00,11.9,5.7,6.8,183,2453,994.26
2004-11-25 13:00,11.4,6.0,6.6,184,2480,992.70
2004-11-25 14:00,11.8,6.8,7.8,193,2626,994.50
2004-11-25 15:00,11.3,6.1,7.2,178,2606,992.64
2004-11-25 16:00,11.5,8.4,10.1,176,2532,991.26
2004-11-25 17:00,11.4,7.2,8.8,172, 809,989.46
2004-11-25 18:00,11.0,7.4,8.3,166,1430,988.14
2004-11-25 19:00,11.0,6.6,7.6,176, 581,987.66
2004-11-25 20:00,11.0,6.1,7.2,171,1898,987.06
2004-11-25 21:00,10.9,5.4,6.2,172,2297,986.40
2004-11-25 22:00,11.2,6.5,7.2,184,2370,985.92
2004-11-25 23:00,11.1,6.6,8.0,186,1668,985.98
2004-11-26 00:00,9.9,13.6,17.8,276, 838,983.22
2004-11-26 01:00,8.8,10.7,13.2,274,2900,986.10
2004-11-26 02:00,6.6,11.8,14.3,288,2941,992.76
2004-11-26 03:00,5.4,12.4,14.7,289,2927,994.86
2004-11-26 04:00,4.7,13.5,16.7,293,2938,997.08
2004-11-26 05:00,4.3,11.3,13.6,302,2953,999.24
2004-11-26 06:00,3.8,11.5,14.5,294,2955,1000.86
2004-11-26 07:00,3.3,11.4,14.5,295,2954,1002.72
2004-11-26 08:00,2.7,11.8,14.7,279,2955,1004.70
2004-11-26 09:00,1.8,11.0,13.4,284,2957,1006.56
2004-11-26 10:00,1.1,11.1,13.6,291,2955,1008.48
2004-11-26 11:00,0.6,10.0,12.5,292,2959,1010.04
2004-11-26 12:00,0.5,8.1,10.3,289,2825,1011.24
2004-11-26 13:00,0.4,8.5,10.3,294,2960,1011.96
2004-11-26 14:00,0.8,7.8,10.6,285,2950,1012.92
2004-11-26 15:00,1.3,6.5,8.4,287,2953,1013.70
2004-11-26 16:00,2.2,8.2,12.0,267,2949,1013.94
2004-11-26 17:00,2.8,7.2,10.0,270,2846,1014.24
2004-11-26 18:00,3.6,9.2,12.1,267,2902,1014.42
2004-11-26 19:00,4.0,8.3,10.8,264,2852,1015.26
2004-11-26 20:00,4.5,8.3,10.4,258,2164,1016.16
2004-11-26 21:00,4.9,9.5,11.8,271,2694,1017.36
2004-11-26 22:00,4.6,9.4,11.3,270,2959,1018.56
2004-11-26 23:00,4.3,8.8,10.6,280,2960,1019.70
2004-11-27 00:00,4.2,7.6,9.1,278,2960,1020.60
2004-11-27 01:00,4.3,8.7,10.9,272,2960,1021.26
2004-11-27 02:00,3.9,8.3,10.0,270,2959,1021.86
2004-11-27 03:00,3.6,8.9,10.5,277,2962,1022.28
2004-11-27 04:00,3.8,8.3,10.5,268,2960,1022.94
2004-11-27 05:00,3.9,8.7,9.8,274,2962,1023.66
2004-11-27 06:00,4.0,7.5,9.3,273,2958,1024.50
2004-11-27 07:00,3.9,6.6,7.8,270,2961,1025.58
2004-11-27 08:00,4.1,5.5,6.8,261,2962,1026.18
2004-11-27 09:00,4.0,3.4,4.6,273,2960,1026.90
2004-11-27 10:00,4.3,2.7,3.8,270,2959,1027.50
2004-11-27 11:00,4.5,3.3,4.4,231,2960,1028.10
2004-11-27 12:00,4.5,2.4,3.4,228,2923,1029.00
2004-11-27 13:00,5.1,2.8,3.5,226,2959,1029.60
2004-11-27 14:00,5.5,2.3,2.9,194,2761,1029.90
2004-11-27 15:00,6.0,3.2,3.9,176,2960,1029.78
2004-11-27 16:00,6.4,3.8,4.6,180,2541,1029.30
2004-11-27 17:00,7.2,5.1,6.0,188,2932,1029.12
2004-11-27 18:00,7.6,5.0,6.2,172,2870,1029.06
2004-11-27 19:00,7.6,6.6,7.9,158,2246,1029.00
2004-11-27 20:00,7.9,8.4,10.0,157,1831,1028.64
2004-11-27 21:00,7.9,8.6,10.2,176,2911,1029.00
2004-11-27 22:00,7.7,9.4,11.0,171,2958,1029.36
2004-11-27 23:00,7.6,8.8,10.4,163,2956,1029.72
2004-11-28 00:00,7.5,9.0,10.5,151,2958,1029.48
2004-11-28 01:00,7.4,8.9,10.9,140,2954,1029.24
2004-11-28 02:00,7.6,10.1,11.8,133,2950,1028.70
2004-11-28 03:00,7.7,10.1,12.1,127,2931,1027.98
2004-11-28 04:00,7.7,11.2,13.4,131,2912,1027.44
2004-11-28 05:00,7.7,11.5,13.6,134,2902,1027.20
2004-11-28 06:00,7.6,11.6,13.1,125,2892,1026.00
2004-11-28 07:00,7.6,10.6,13.2,121,2865,1025.76
2004-11-28 08:00,7.8,10.1,12.1,123,2881,1025.34
2004-11-28 09:00,8.0,9.4,11.3,122,2843,1024.92
2004-11-28 10:00,8.2,10.5,12.7,117,2771,1024.02
2004-11-28 11:00,8.3,10.5,13.1,119,2757,1023.36
2004-11-28 12:00,8.3,10.9,13.8,115,2660,1021.68
2004-11-28 13:00,8.4,12.8,15.8,114,2679,1020.66
2004-11-28 14:00,8.5,12.4,15.1,114,2470,1020.00
2004-11-28 15:00,8.7,12.6,15.5,116,2397,1019.04
2004-11-28 16:00,9.0,12.1,15.4,117,2435,1017.24
2004-11-28 17:00,9.2,13.1,15.5,116,2221,1015.02
2004-11-28 18:00,9.4,13.3,16.7,117,2068,1013.40
2004-11-28 19:00,9.7,15.1,18.5,115,2058,1011.84
2004-11-28 20:00,9.8,14.6,17.4,120,2012,1011.54
2004-11-28 21:00,9.9,13.2,16.2,121,1950,1010.94
2004-11-28 22:00,10.0,14.6,17.6,126,1649,1009.50
2004-11-28 23:00,10.0,14.2,16.9,130, 901,1009.38
2004-11-29 00:00,9.9,10.1,12.1,120, 914,1009.08
2004-11-29 01:00,10.6,13.6,16.4,129,1984,1007.28
2004-11-29 02:00,9.9,10.1,12.9,129, 640,1005.90
2004-11-29 03:00,10.0,5.1,7.6,181,1585,1006.08
2004-11-29 04:00,10.0,11.5,14.3,306,2885,1008.06
2004-11-29 05:00,9.0,10.7,13.8,306,2939,1009.68
2004-11-29 06:00,8.7,11.0,13.9,299,2882,1010.64
2004-11-29 07:00,8.0,9.8,12.5,303,2954,1011.96
2004-11-29 08:00,7.6,10.9,12.6,317,2942,1012.20
2004-11-29 09:00,7.3,8.0,11.1,326,2954,1013.70
2004-11-29 10:00,6.9,6.7,8.5,307,2959,1015.56
2004-11-29 11:00,6.5,4.5,5.9,281,2958,1017.42
2004-11-29 12:00,6.6,6.0,7.5,288,2938,1018.56
2004-11-29 13:00,6.6,6.0,7.5,299,2957,1019.76
2004-11-29 14:00,6.5,6.5,7.8,301,2822,1020.84
2004-11-29 15:00,6.6,7.7,9.7,319,2859,1021.08
2004-11-29 16:00,6.8,7.9,9.1,323,2903,1020.96
2004-11-29 17:00,7.2,6.6,7.9,335,2959,1020.18
2004-11-29 18:00,7.8,6.6,8.0,330,2922,1020.36
2004-11-29 19:00,8.4,5.3,6.7,325,2733,1020.60
2004-11-29 20:00,8.6,5.9,6.7,332,2875,1020.84
2004-11-29 21:00,8.4,6.6,7.8,318,2957,1021.68
2004-11-29 22:00,7.7,5.8,7.2,335,2960,1021.38
2004-11-29 23:00,7.3,6.0,7.2,320,2960,1022.16
2004-11-30 00:00,6.2,6.9,8.3,328,2959,1022.82
2004-11-30 01:00,5.6,7.1,8.4,338,2960,1023.06
2004-11-30 02:00,5.5,5.9,6.9,340,2960,1023.12
2004-11-30 03:00,6.3,5.2,6.4,  0,2957,1023.12
2004-11-30 04:00,6.4,4.9,6.2, 42,2959,1023.00
2004-11-30 05:00,6.3,4.1,5.0, 55,2957,1022.52
2004-11-30 06:00,6.2,4.1,5.3, 39,2957,1022.58
2004-11-30 07:00,6.1,5.1,6.3, 16,2959,1023.24
2004-11-30 08:00,5.9,6.3,7.7, 28,2960,1023.12
2004-11-30 09:00,5.4,6.0,7.4, 33,2960,1023.48
2004-11-30 10:00,5.6,5.6,7.0, 29,2960,1023.96
2004-11-30 11:00,5.5,5.0,6.3, 21,2960,1024.50
2004-11-30 12:00,5.5,4.0,5.2, 60,2956,1024.56
2004-11-30 13:00,5.5,2.6,3.7,105,2927,1024.80
2004-11-30 14:00,5.7,2.8,3.9,106,2953,1024.74
2004-11-30 15:00,6.2,2.8,3.8,145,2854,1024.74
2004-11-30 16:00,7.2,1.0,2.0,158,2946,1024.26
2004-11-30 17:00,7.6,0.7,1.4,289,2756,1023.78
2004-11-30 18:00,7.0,1.1,1.8,183,2947,1023.24
2004-11-30 19:00,6.9,2.6,3.5,109,2376,1022.22
2004-11-30 20:00,6.9,3.0,4.0,140,2286,1022.52
2004-11-30 21:00,6.6,3.7,4.6,152,2959,1022.46
2004-11-30 22:00,7.0,4.2,5.1,158,2960,1022.64
2004-11-30 23:00,7.2,5.2,6.3,157,2959,1022.64
2004-12-01 00:00,7.3,4.9,6.3,157,2956,1022.88
2004-12-01 01:00,7.5,6.1,6.9,151,2951,1022.46
2004-12-01 02:00,7.8,4.4,5.4,166,2948,1021.92
2004-12-01 03:00,7.8,5.1,6.1,176,2951,1021.26
2004-12-01 04:00,7.9,6.8,8.0,182,2953,1020.84
2004-12-01 05:00,7.8,7.4,8.6,186,2941,1020.12
2004-12-01 06:00,7.8,8.4,10.4,191,2942,1019.16
2004-12-01 07:00,8.0,7.2,8.7,177,2943,1017.90
2004-12-01 08:00,8.0,7.7,9.1,167,2925,1016.82
2004-12-01 09:00,7.8,8.2,10.0,159,2925,1014.90
2004-12-01 10:00,7.9,9.0,10.4,167,2894,1014.36
2004-12-01 11:00,8.0,8.4,9.8,163,2875,1013.64
2004-12-01 12:00,8.2,11.6,13.1,154,2763,1010.46
2004-12-01 13:00,8.6,11.7,13.9,147,1710,1008.84
2004-12-01 14:00,9.1,12.8,15.4,140,2053,1005.24
2004-12-01 15:00,9.5,13.2,15.5,146,2571,1002.42